Regional Weather Roundup
Issued by NWS

Home | Current Version | Previous Version | Graphics & Text | Print | Product List | Glossary On
Versions: 1 2 3 4 5 6 7 8 9 10 11 12 13 14 15 16 17 18 19 20 21 22 23 24 25 26 27 28 29 30 31 32 33 34 35 36 37 38 39 40 41 42 43 44 45 46 47 48 49 50
000
ASUS45 KTFX 240910
RWRMT
MONTANA REGIONAL WEATHER ROUNDUP
NATIONAL WEATHER SERVICE GREAT FALLS MT
200 AM MST FRI NOV 24 2017

NOTE: "FAIR" INDICATES FEW OR NO CLOUDS BELOW 12000 FEET WITH NO
SIGNIFICANT WEATHER AND/OR OBSTRUCTIONS TO VISIBILITY.

MTZ001>007-043-241000-
WEST OF THE DIVIDE

CITY           SKY/WX    TMP DP  RH WIND       PRES   REMARKS
KALISPELL      FAIR      40  33  76 SW12      29.80R
MISSOULA       FAIR      42  31  64 NW13      29.89R
BUTTE          CLOUDY    40  32  73 NW6       29.84R
MULLAN PASS    MOCLDY    27  23  85 VRB5      29.84R
ANACONDA         N/A     41  32  70 W16G25    29.83R
DEER LODGE       N/A     39  37  93 NE7       29.86R
EUREKA           N/A     41  25  52 MISG      29.80R
HAMILTON         N/A     48  27  43 W15G33    29.85F
LIBBY            N/A     36  34  93 CALM      29.81R
RONAN            N/A     43  28  55 S9        29.93R
$$

MTZ008-052>055-241000-
SOUTHWEST MONTANA

CITY           SKY/WX    TMP DP  RH WIND       PRES   REMARKS
BOZEMAN        FAIR      47  37  68 W20G25    29.76R
DILLON         CLOUDY    44  37  76 W12       29.84R
W YELLOWSTONE  CLOUDY    41  37  87 SW17G31   29.83S
ENNIS          DRIZZLE   43  39  87 VRB6G16   29.89R
$$

MTZ009-010-012-014-046-048-049-054-241000-
EAST SLOPES AND CENTRAL MONTANA

CITY           SKY/WX    TMP DP  RH WIND       PRES   REMARKS
CUT BANK       FAIR      35  28  75 W13       29.61R WCI  26
GREAT FALLS    FAIR      44  23  43 W22G38    29.66R
MALMSTROM AFB  FAIR      46  27  47 W25G38    29.66R
HELENA         FAIR      45  36  70 W22G28    29.78R
BOWMANS CRNR   FAIR      37  27  65 NW9       29.70R WCI  31
CHOTEAU          N/A     45  21  39 W22G41    29.64F
FAIRFIELD      FAIR      39  25  56 W23       29.63R WCI  29
POWER          FAIR      40  25  54 W24G33    29.63R
RAYNESFORD     FAIR      48  26  41 W31G40    29.64R
ULM            FAIR      46  29  51 W28G35    29.67R
$$

MTZ011-013-016-021-045-047-050-051-241000-
NORTH CENTRAL MONTANA

CITY           SKY/WX    TMP DP  RH WIND       PRES   REMARKS
HAVRE          CLOUDY    41  39  93 W6        29.59R
LEWISTOWN      FAIR      48  34  58 W25G38    29.58S
N BAR RANCH    FAIR      48  34  57 NW24G31   29.61S
CHINOOK          N/A     41  39  93 W6        29.57R
DENTON         FAIR      48  37  67 MISG      29.56R
GEYSER         FAIR      46  31  56 W25G36    29.62R
GRASS RANGE    MOCLDY    51  34  52 W23G33    29.55F
STANFORD       FAIR      49  25  39 W40G52    29.60F
WINIFRED       MOCLDY    50  35  56 W24G31    29.57R
$$

MTZ017>020-022>027-061-062-241000-
NORTHEAST MONTANA

CITY           SKY/WX    TMP DP  RH WIND       PRES   REMARKS
GLASGOW        FAIR      46  43  89 NW22      29.46R
GLENDIVE       LGT RAIN  51  44  77 NW20      29.47R
JORDAN           N/A     49  41  74 W30G45    29.51F
SIDNEY         FAIR      53  44  71 W24G30    29.38F
WOLF POINT     CLOUDY    50  44  80 W9        29.42R
MALTA          MOCLDY    41  39  93 NW16G24   29.55R FOG
POPLAR           N/A     50  45  81 W13       29.42R
SCOBEY           N/A     37  30  76 NW3       29.44F
$$

MTZ028>42-056>058-241000-
SOUTHCENTRAL AND SOUTHEAST MONTANA

CITY           SKY/WX    TMP DP  RH WIND       PRES   REMARKS
BAKER          CLOUDY    55  34  45 SW21      29.45F
BILLINGS       LGT RAIN  50  41  71 NW30G38   29.63R
LIVINGSTON     MOCLDY    47  32  56 W28G33    29.69S
MILES CITY     CLOUDY    60  37  42 NW33G51   29.51R
BIG TIMBER     CLOUDY    46  41  81 W20       29.71R
FORSYTH          N/A     57  36  44 W21G32    29.54R
HARLOWTON      MOCLDY    44  38  78 W22G28    29.68R
LAUREL           N/A     48  41  76 NW20G33   29.65R
ROUNDUP          N/A     50  37  60 SW17      29.55R
$$

REGIONAL REPORTS...DAKOTAS

CITY           SKY/WX    TMP DP  RH WIND       PRES   REMARKS
WILLISTON      CLOUDY    44  39  82 CALM      29.39R
MINOT          FAIR      45  37  73 W14       29.30F
DICKINSON      FAIR      49  34  56 W10       29.41R
BEACH          MOCLDY    52  37  58 NW17      29.49R
CROSBY         CLOUDY    39  37  93 NW9       29.37S
TIOGA          FAIR      39  39 100 NW12G18   29.39R WCI  32
WATFORD CITY   MOCLDY    50  45  81 W21G26    29.39R
BISMARCK       FAIR      51  36  56 W10       29.38S
GRAND FORKS    FAIR      42  36  79 CALM      29.25R
FARGO          FAIR      45  37  73 SW9       29.30F
RAPID CITY     FAIR      56  31  38 SW6       29.55F
$$

REGIONAL REPORTS...WYOMING/IDAHO/WASHINGTON

CITY           SKY/WX    TMP DP  RH WIND       PRES   REMARKS
GILLETTE       FAIR      56  32  40 SW23G31   29.60F
SHERIDAN       FAIR      63  30  28 NW13G22   29.57F
BUFFALO WY     FAIR      57  26  30 S13G18    29.64F
CODY           LGT RAIN  53  35  50 SW8       29.70S
YELLOWSTONE LA   N/A     39  33  79 W9G20     29.89F
IDAHO FALLS    FAIR      47  38  71 SW15      29.91R
SALMON         LGT RAIN  44  41  89 N9        29.88R
BOISE          LGT RAIN  52  48  86 S3        29.94F
SPOKANE        FAIR      37  33  85 SW15      29.89R WCI  28
$$

REGIONAL REPORTS...ALBERTA

CITY           SKY/WX    TMP DP  RH WIND       PRES   REMARKS
EDMONTON       PTCLDY    34  25  69 W9        29.44R WCI  26
CALGARY        PTCLDY    39  21  48 W13G20    29.52R WCI  32
LETHBRIDGE     CLEAR     37  28  70 SW13G18   29.59R WCI  29
MEDICINE HAT   MOCLDY    39  36  87 W20       29.53R WCI  30
$$

REGIONAL REPORTS...SASKATCHEWAN

CITY           SKY/WX    TMP DP  RH WIND       PRES   REMARKS
SWIFT CURRENT    N/A     36  34  93 W13       29.43R WCI  27
REGINA         MOCLDY    36  34  93 W12       29.36R WCI  27
$$



USA.gov is the U.S. government's official web portal to all federal, state and local government web resources and services.